Location: Banksville Park
(38.5557°N, 75.1182°W)
Time: 21:59:10
(UTC+00:00)

Cosmos 2208 Rocket - Pass Details

Date: 19 September 2020
Orbit: 755 x 805 km, 74.0° (Epoch: 20 October)

Event Time Altitude Azimuth Distance (km) Brightness Sun altitude
Rises 09:56:15 0° 194° (SSW) 3,243 7.0 -10.5°
Reaches altitude 10° 09:58:38 10° 194° (SSW) 2,312 6.3 -10.0°
Maximum altitude 10:03:52 83° 108° (ESE) 777 4.1 -9.0°
Drops below altitude 10° 10:09:06 10° 20° (NNE) 2,299 6.9 -8.0°
Sets 10:11:28 0° 20° (NNE) 3,223 7.6 -7.6°
